User: anonymous   Login
Location: Casco Millpond
(44.5581°N, 87.6111°W)
Time: 16:15:25
(UTC+00:00)
Language:

Cosmos 1707 Rocket - Orbit

View from above orbital plane
View from above orbital plane
View from above satellite
View from above satellite

Ground track
Ground track

The orbit is defined by the following mean orbital elements,

1 16327U          26076.17920387 +.00000000 +00000-0 +46988-4 0 00009
2 16327  82.5369 342.6359 0016736 240.0961 234.9052 14.85822347    00
Epoch (UTC): 17 March 2026 04:18:03
Eccentricity: 0.0016736
inclination: 82.5369°
perigee height: 599 km
apogee height: 623 km
right ascension of ascending node: 342.6359°
argument of perigee: 240.0961°
revolutions per day: 14.85822347
mean anomaly at epoch: 234.9052°

The dashed part of the orbit path shows where the satellite is in the earth's shadow,  

DLR